Location: Starlight Observatory
(38.4029°N, 85.8936°W)
Time: 10:16:05
(UTC-04:00)

Amateur Radio Satellites - All Passes

Search period start: 01 October 2014 09:46
Search period end: 02 October 2014 09:46
Location: Starlight Observatory, 38.4029°N, 85.8936°W

Satellite Date Start Highest point End Downlink Frequencies (MHz)
Time Altitude Azimuth
RS-15 01 Oct 10:01:45 10:10:13 24° 29° (NNE) 10:18:52 29.354 - 29.394 USB, Beacon 29.352 USB
Sapphire 01 Oct 10:41:23 10:46:47 81° 298° (WNW) 10:52:14 437.095 MHz 1200 baud AX-25 AFSK
HO-68 01 Oct 10:52:26 10:59:39 80° 105° (ESE) 11:06:51 435.675 MHz FM
Oscar 11 01 Oct 10:55:29 10:59:22 32° 97° (E) 11:03:13 145.825 FM, Beacon 2401.500 USB
PCSat 01 Oct 11:07:18 11:12:28 46° 303° (WNW) 11:17:41 145.825 MHz
FUNcube-1 01 Oct 11:20:26 11:24:11 25° 95° (E) 11:27:51 145.950 - 145.970 MHz USB
UKube-1 01 Oct 11:24:47 11:29:10 88° 104° (ESE) 11:33:32 145.840 MHz, 145.915 MHz
ZACube-1 01 Oct 12:05:05 12:09:39 82° 102° (ESE) 12:14:06 437.345 MHz
RS-15 01 Oct 12:13:50 12:24:59 71° 56° (NE) 12:36:36 29.354 - 29.394 USB, Beacon 29.352 USB
Sapphire 01 Oct 12:28:31 12:31:04 13° 317° (NW) 12:33:38 437.095 MHz 1200 baud AX-25 AFSK
Oscar 11 01 Oct 12:32:08 12:35:20 21° 292° (WNW) 12:38:32 145.825 FM, Beacon 2401.500 USB
HO-68 01 Oct 12:41:43 12:46:32 20° 303° (WNW) 12:51:20 435.675 MHz FM
FUNcube-1 01 Oct 12:56:39 13:00:30 28° 291° (WNW) 13:04:16 145.950 - 145.970 MHz USB
Oscar 19 01 Oct 13:35:26 13:39:41 26° 67° (ENE) 13:43:57 437.125 CW, 437.150 USB
ITAMSAT 1 01 Oct 13:49:32 13:52:25 15° 62° (ENE) 13:55:19 435.822 SSB
Uribyol 2 01 Oct 13:50:01 13:53:11 17° 63° (ENE) 13:56:20 436.500 FM
Saudisat 1A 01 Oct 13:57:05 14:00:11 19° 110° (ESE) 14:03:17 436.775 MHz
JAS-1B 01 Oct 14:14:35 14:21:46 46° 70° (ENE) 14:27:53 435.800 - 435.900 CW/SSB
Oscar 16 01 Oct 14:15:30 14:20:38 66° 74° (ENE) 14:25:47 437.025 USB, Beacon 2401.1428
AO-Echo 01 Oct 14:23:18 14:27:30 34° 70° (ENE) 14:31:45 ?
AO-27 01 Oct 14:26:01 14:30:38 34° 69° (ENE) 14:35:16 436.795 MHz FM
RS-15 01 Oct 14:27:17 14:36:27 31° 255° (WSW) 14:45:59 29.354 - 29.394 USB, Beacon 29.352 USB
Gurwin Techsat 1B 01 Oct 14:52:54 14:57:25 30° 68° (ENE) 15:01:57 435.225 FM
Oscar 19 01 Oct 15:14:07 15:18:51 35° 263° (W) 15:23:36 437.125 CW, 437.150 USB
TMSAT-1 01 Oct 15:20:53 15:25:45 39° 70° (ENE) 15:30:39 436.925 FM
ITAMSAT 1 01 Oct 15:26:13 15:31:20 65° 258° (WSW) 15:36:30 435.822 SSB
Uribyol 2 01 Oct 15:27:01 15:32:07 60° 259° (W) 15:37:16 436.500 FM
MaSat-1 01 Oct 15:31:46 15:34:24 21° 56° (NE) 15:36:46 437.345 MHz
Saudisat 1A 01 Oct 15:35:17 15:39:26 41° 306° (NW) 15:43:37 436.775 MHz
Uosat F 01 Oct 15:48:24 15:49:40 11° 60° (ENE) 15:50:56 435.120 FM
AO-7 01 Oct 15:49:01 15:55:54 30° 59° (ENE) 16:02:46 29.400 - 29.500 MHz
Oscar 16 01 Oct 15:57:53 16:00:24 14° 269° (W) 16:02:56 437.025 USB, Beacon 2401.1428
AO-Echo 01 Oct 16:02:44 16:06:21 22° 266° (W) 16:09:59 ?
AO-27 01 Oct 16:05:48 16:10:08 27° 264° (W) 16:14:30 436.795 MHz FM
JAS-1B 01 Oct 16:05:48 16:12:25 30° 262° (W) 16:18:11 435.800 - 435.900 CW/SSB
KITSAT 1 01 Oct 16:10:20 16:13:57 14° 99° (E) 16:17:34 435.175 FM
Gurwin Techsat 1B 01 Oct 16:32:33 16:37:16 32° 263° (W) 16:42:01 435.225 FM
TMSAT-1 01 Oct 17:01:33 17:05:45 24° 266° (W) 17:10:00 436.925 FM
MaSat-1 01 Oct 17:08:53 17:10:31 14° 258° (WSW) 17:12:03 437.345 MHz
Uosat F 01 Oct 17:22:42 17:27:42 86° 256° (WSW) 17:32:44 435.120 FM
OPAL 01 Oct 17:35:35 17:38:32 15° 94° (E) 17:41:26 ?
AO-7 01 Oct 17:40:00 17:48:10 60° 257° (WSW) 17:56:21 29.400 - 29.500 MHz
Oscar 10/S400 01 Oct 17:44:21 18:02:23 55° 160° (SSE) 18:46:26 145.825 - 145.975 CW/USB, Beacon 145.810 USB
Hamsat 01 Oct 17:54:17 17:57:27 20° 68° (ENE) 18:00:37 145.90 MHz
KITSAT 1 01 Oct 17:59:59 18:08:04 80° 116° (ESE) 18:16:10 435.175 FM
JAS-2 01 Oct 18:06:50 18:11:36 39° 69° (ENE) 18:16:37 435.800 - 435.900 CW/SSB, 435.910 FM
PCSat 01 Oct 18:14:26 18:17:49 16° 45° (NE) 18:21:10 145.825 MHz
AO-40 01 Oct 18:39:55 00:54:19 42° 185° (S) 06:35:06 Beacon 2401.320
SO-50 01 Oct 18:59:53 19:02:38 16° 109° (ESE) 19:05:24 436.795 FM
OPAL 01 Oct 19:12:46 19:17:45 57° 289° (WNW) 19:22:39 ?
Hamsat 01 Oct 19:29:17 19:33:11 33° 263° (W) 19:37:05 145.90 MHz
Sapphire 01 Oct 19:30:55 19:36:17 58° 59° (ENE) 19:41:37 437.095 MHz 1200 baud AX-25 AFSK
SO-67 01 Oct 19:42:38 19:45:51 38° 74° (ENE) 19:49:05 435.3500 MHz FM
JAS-2 01 Oct 19:53:04 19:56:57 21° 267° (W) 20:00:58 435.800 - 435.900 CW/SSB, 435.910 FM
PCSat 01 Oct 19:56:26 20:01:52 80° 244° (WSW) 20:07:16 145.825 MHz
KITSAT 1 01 Oct 19:57:52 20:04:20 26° 317° (NW) 20:10:51 435.175 FM
STRAND 1 01 Oct 20:15:07 20:20:07 50° 100° (E) 20:25:06 ?
SO-50 01 Oct 20:38:23 20:42:44 49° 305° (NW) 20:47:12 436.795 FM
UOSAT-12 01 Oct 21:03:10 21:06:57 26° 112° (ESE) 21:10:48 437.025 FM, 437.400 FM
PANSAT 01 Oct 21:13:34 21:16:10 17° 173° (S) 21:18:45 not established
Sapphire 01 Oct 21:15:41 21:19:11 18° 255° (WSW) 21:22:41 437.095 MHz 1200 baud AX-25 AFSK
HO-68 01 Oct 21:19:07 21:25:57 52° 68° (ENE) 21:32:49 435.675 MHz FM
Oscar 11 01 Oct 21:49:32 21:52:53 22° 68° (ENE) 21:56:15 145.825 FM, Beacon 2401.500 USB
STRAND 1 01 Oct 21:55:20 21:58:54 19° 296° (WNW) 22:02:29 ?
ISS 01 Oct 22:15:14 22:18:19 37° 135° (SE) 22:21:25 145.800 FM
FUNcube-1 01 Oct 22:15:51 22:19:00 19° 66° (ENE) 22:22:10 145.950 - 145.970 MHz USB
UKube-1 01 Oct 22:18:37 22:22:53 63° 74° (ENE) 22:27:11 145.840 MHz, 145.915 MHz
Saudisat 1A 01 Oct 22:25:12 22:27:20 13° 42° (NE) 22:29:26 436.775 MHz
UOSAT-12 01 Oct 22:42:42 22:46:56 34° 309° (NW) 22:51:15 437.025 FM, 437.400 FM
PANSAT 01 Oct 22:53:08 22:55:43 17° 186° (S) 22:58:18 not established
ZACube-1 01 Oct 22:59:40 23:04:05 54° 74° (ENE) 23:08:36 437.345 MHz
HO-68 01 Oct 23:07:56 23:13:52 28° 264° (W) 23:19:52 435.675 MHz FM
Oscar 11 01 Oct 23:25:02 23:28:53 30° 263° (W) 23:32:45 145.825 FM, Beacon 2401.500 USB
FUNcube-1 01 Oct 23:50:46 23:55:02 41° 262° (W) 23:59:23 145.950 - 145.970 MHz USB
ISS 01 Oct 23:52:14 23:55:04 25° 331° (NNW) 23:57:54 145.800 FM
UKube-1 01 Oct 23:58:59 23:59:28 10° 269° (W) 23:59:56 145.840 MHz, 145.915 MHz
Saudisat 1A 02 Oct 00:03:02 00:07:28 81° 240° (WSW) 00:11:52 436.775 MHz
ZACube-1 02 Oct 00:38:38 00:40:48 13° 269° (W) 00:43:00 437.345 MHz
KITSAT 1 02 Oct 01:55:19 02:02:22 32° 46° (NE) 02:09:22 435.175 FM
Oscar 16 02 Oct 02:29:24 02:33:40 26° 95° (E) 02:37:53 437.025 USB, Beacon 2401.1428
AO-Echo 02 Oct 02:33:04 02:35:26 13° 91° (E) 02:37:50 ?
RS-15 02 Oct 02:35:27 02:46:00 53° 111° (ESE) 02:56:23 29.354 - 29.394 USB, Beacon 29.352 USB
AO-27 02 Oct 02:42:06 02:44:34 13° 91° (E) 02:47:01 436.795 MHz FM
ISS 02 Oct 03:10:12 03:10:41 10° 12° (NNE) 03:11:11 145.800 FM
Gurwin Techsat 1B 02 Oct 03:12:13 03:14:25 13° 90° (E) 03:16:37 435.225 FM
Oscar 19 02 Oct 03:26:43 03:31:53 88° 284° (WNW) 03:37:00 437.125 CW, 437.150 USB
SO-50 02 Oct 03:32:06 03:34:44 14° 42° (NE) 03:37:22 436.795 FM
TMSAT-1 02 Oct 03:39:11 03:42:39 17° 92° (E) 03:46:05 436.925 FM
ITAMSAT 1 02 Oct 03:40:38 03:45:44 51° 100° (E) 03:50:48 435.822 SSB
Uribyol 2 02 Oct 03:41:14 03:46:23 55° 101° (E) 03:51:29 436.500 FM
KITSAT 1 02 Oct 03:50:18 03:58:14 63° 247° (WSW) 04:06:08 435.175 FM
JAS-1B 02 Oct 03:50:19 03:56:03 81° 104° (ESE) 04:02:22 435.800 - 435.900 CW/SSB
Oscar 16 02 Oct 04:08:24 04:13:02 35° 291° (WNW) 04:17:37 437.025 USB, Beacon 2401.1428
AO-Echo 02 Oct 04:09:33 04:14:34 66° 286° (WNW) 04:19:43 ?
AO-27 02 Oct 04:19:19 04:24:31 68° 286° (WNW) 04:29:41 436.795 MHz FM
ISS 02 Oct 04:45:13 04:48:13 31° 31° (NNE) 04:51:13 145.800 FM
RS-15 02 Oct 04:48:06 04:58:28 45° 313° (NW) 05:08:52 29.354 - 29.394 USB, Beacon 29.352 USB
OPAL 02 Oct 04:48:22 04:52:36 26° 64° (ENE) 04:56:51 ?
Gurwin Techsat 1B 02 Oct 04:49:35 04:54:53 73° 286° (WNW) 05:00:10 435.225 FM
Oscar 19 02 Oct 05:09:33 05:10:24 10° 301° (WNW) 05:11:15 437.125 CW, 437.150 USB
SO-50 02 Oct 05:11:04 05:15:55 86° 240° (WSW) 05:20:48 436.795 FM
MaSat-1 02 Oct 05:13:32 05:16:44 18° 104° (ESE) 05:19:52 437.345 MHz
TMSAT-1 02 Oct 05:17:41 05:22:51 54° 288° (WNW) 05:28:00 436.925 FM
ITAMSAT 1 02 Oct 05:21:11 05:24:48 19° 296° (WNW) 05:28:25 435.822 SSB
Uribyol 2 02 Oct 05:21:57 05:25:23 18° 297° (WNW) 05:28:49 436.500 FM
Uosat F 02 Oct 05:32:15 05:36:47 33° 97° (E) 05:41:17 435.120 FM
UOSAT-12 02 Oct 05:34:08 05:37:25 18° 45° (NE) 05:40:40 437.025 FM, 437.400 FM
AO-7 02 Oct 05:43:07 05:51:10 53° 102° (ESE) 05:59:12 29.400 - 29.500 MHz
JAS-1B 02 Oct 05:43:43 05:46:06 13° 300° (WNW) 05:48:33 435.800 - 435.900 CW/SSB
ISS 02 Oct 06:21:59 06:24:51 27° 227° (SW) 06:27:42 145.800 FM
OPAL 02 Oct 06:26:27 06:31:15 38° 260° (W) 06:36:06 ?
MaSat-1 02 Oct 06:48:09 06:52:51 49° 298° (WNW) 06:57:20 437.345 MHz
JAS-2 02 Oct 06:59:50 07:06:27 49° 100° (E) 07:13:43 435.800 - 435.900 CW/SSB, 435.910 FM
RS-15 02 Oct 07:07:56 07:14:45 18° 345° (NNW) 07:21:38 29.354 - 29.394 USB, Beacon 29.352 USB
Uosat F 02 Oct 07:11:14 07:15:25 27° 293° (WNW) 07:19:36 435.120 FM
UOSAT-12 02 Oct 07:13:19 07:17:57 59° 243° (WSW) 07:22:30 437.025 FM, 437.400 FM
Hamsat 02 Oct 07:16:07 07:20:10 46° 99° (E) 07:24:10 145.90 MHz
STRAND 1 02 Oct 07:29:33 07:34:34 61° 73° (ENE) 07:39:36 ?
AO-7 02 Oct 07:36:25 07:43:36 35° 300° (WNW) 07:50:48 29.400 - 29.500 MHz
SO-67 02 Oct 08:40:10 08:43:35 59° 100° (E) 08:46:59 435.3500 MHz FM
JAS-2 02 Oct 08:45:27 08:51:14 31° 293° (WNW) 08:57:31 435.800 - 435.900 CW/SSB, 435.910 FM
Hamsat 02 Oct 08:53:33 08:55:41 14° 294° (WNW) 08:57:49 145.90 MHz
PCSat 02 Oct 08:55:47 08:59:00 16° 104° (ESE) 09:02:15 145.825 MHz
STRAND 1 02 Oct 09:11:31 09:14:08 14° 269° (W) 09:16:47 ?
RS-15 02 Oct 09:25:34 09:33:14 20° 23° (NNE) 09:41:02 29.354 - 29.394 USB, Beacon 29.352 USB
